When you browse on this site, cookies collect data to enhance your experience and personalize the content and advertising you see.
Visit our Privacy Policy to learn more. By continuing to use the site, you agree to this use of cookies and data.
  • In Hungary
  • List of Countries
  • For 7 days
  • Water Temperature
  • Satellite Maps
  • Weather Map
  • News
  • Weather Widgets
  • user-avatar
    Login

    Hourly Weather Caracas

    Today, 17 January, Thursday

    Time Temperature Precipitation Wind Pressure Humidity
    00:00 +16°C° 0.1 mm 3 mps 650 mmHg 96%
    01:00 +16°C° 0.1 mm 2 mps 650 mmHg 96%
    02:00 +16°C° 0.1 mm 2 mps 650 mmHg 96%
    03:00 +16°C° 0.1 mm 2 mps 650 mmHg 96%
    04:00 +16°C° 0.1 mm 2 mps 650 mmHg 96%
    05:00 +16°C° 0.1 mm 2 mps 650 mmHg 96%
    06:00 +17°C° 0.1 mm 2 mps 651 mmHg 94%
    07:00 +17°C° 0.1 mm 2 mps 651 mmHg 93%
    08:00 +17°C° 0.1 mm 2 mps 651 mmHg 92%
    09:00 +18°C° 0 mm 2 mps 652 mmHg 85%
    10:00 +20°C° 0 mm 2 mps 652 mmHg 79%
    11:00 +21°C° 0 mm 3 mps 653 mmHg 73%
    12:00 +22°C° 0.5 mm 3 mps 652 mmHg 73%
    13:00 +22°C° 0.5 mm 3 mps 652 mmHg 72%
    14:00 +24°C° 0.5 mm 3 mps 651 mmHg 71%
    15:00 +22°C° 1.3 mm 3 mps 651 mmHg 74%
    16:00 +21°C° 1.3 mm 4 mps 650 mmHg 77%
    17:00 +21°C° 1.3 mm 4 mps 650 mmHg 80%
    18:00 +20°C° 0.1 mm 4 mps 650 mmHg 84%
    19:00 +18°C° 0.1 mm 3 mps 650 mmHg 89%
    20:00 +17°C° 0.1 mm 3 mps 650 mmHg 94%
    21:00 +17°C° 0.1 mm 3 mps 650 mmHg 94%
    22:00 +17°C° 0.1 mm 3 mps 650 mmHg 95%
    23:00 +17°C° 0.1 mm 2 mps 650 mmHg 95%

    Tomorrow, 18 January, Friday

    Time Temperature Precipitation Wind Pressure Humidity
    00:00 +17°C° 0.1 mm 2 mps 650 mmHg 95%
    01:00 +17°C° 0.1 mm 2 mps 650 mmHg 95%
    02:00 +17°C° 0.1 mm 2 mps 650 mmHg 96%
    03:00 +17°C° 0.1 mm 2 mps 650 mmHg 95%
    04:00 +17°C° 0.1 mm 2 mps 649 mmHg 95%
    05:00 +17°C° 0.1 mm 2 mps 649 mmHg 95%
    06:00 +17°C° 0.1 mm 2 mps 650 mmHg 94%
    07:00 +17°C° 0.1 mm 2 mps 650 mmHg 93%
    08:00 +17°C° 0.1 mm 2 mps 650 mmHg 92%
    09:00 +19°C° 0 mm 2 mps 651 mmHg 85%
    10:00 +20°C° 0 mm 2 mps 652 mmHg 78%
    11:00 +22°C° 0 mm 3 mps 652 mmHg 71%
    12:00 +22°C° 0.2 mm 3 mps 652 mmHg 69%
    13:00 +24°C° 0.2 mm 3 mps 651 mmHg 68%
    14:00 +24°C° 0.2 mm 3 mps 650 mmHg 67%
    15:00 +22°C° 0.3 mm 3 mps 650 mmHg 71%
    16:00 +21°C° 0.3 mm 3 mps 649 mmHg 75%
    17:00 +21°C° 0.3 mm 4 mps 649 mmHg 80%
    18:00 +20°C° 0 mm 3 mps 649 mmHg 84%
    19:00 +19°C° 0 mm 3 mps 649 mmHg 89%
    20:00 +17°C° 0 mm 3 mps 649 mmHg 93%
    21:00 +17°C° 0.1 mm 3 mps 649 mmHg 94%
    22:00 +17°C° 0.1 mm 3 mps 650 mmHg 94%
    23:00 +17°C° 0.1 mm 3 mps 650 mmHg 95%

    Day after tomorrow, 19 January, Saturday

    Time Temperature Precipitation Wind Pressure Humidity
    00:00 +17°C° 0.1 mm 2 mps 650 mmHg 95%
    01:00 +17°C° 0.1 mm 2 mps 650 mmHg 95%
    02:00 +16°C° 0.1 mm 2 mps 649 mmHg 96%
    03:00 +16°C° 0.1 mm 2 mps 649 mmHg 95%
    04:00 +16°C° 0.1 mm 2 mps 649 mmHg 95%
    05:00 +16°C° 0.1 mm 2 mps 649 mmHg 95%
    06:00 +17°C° 0 mm 2 mps 650 mmHg 94%
    07:00 +17°C° 0 mm 2 mps 650 mmHg 93%
    08:00 +17°C° 0 mm 2 mps 650 mmHg 92%
    09:00 +19°C° 0 mm 2 mps 651 mmHg 82%
    10:00 +21°C° 0 mm 2 mps 652 mmHg 73%
    11:00 +22°C° 0 mm 3 mps 652 mmHg 64%
    12:00 +24°C° 0 mm 3 mps 652 mmHg 61%
    13:00 +25°C° 0 mm 3 mps 651 mmHg 58%
    14:00 +26°C° 0 mm 4 mps 651 mmHg 54%
    15:00 +25°C° 0 mm 4 mps 650 mmHg 59%
    16:00 +23°C° 0 mm 4 mps 649 mmHg 64%
    17:00 +22°C° 0 mm 4 mps 648 mmHg 69%
    18:00 +20°C° 0 mm 3 mps 649 mmHg 77%
    19:00 +19°C° 0 mm 3 mps 649 mmHg 84%
    20:00 +18°C° 0 mm 3 mps 649 mmHg 91%
    21:00 +17°C° 0.1 mm 3 mps 649 mmHg 92%
    22:00 +17°C° 0.1 mm 3 mps 650 mmHg 93%
    23:00 +17°C° 0.1 mm 3 mps 650 mmHg 93%

    20 January, Sunday

    Time Temperature Precipitation Wind Pressure Humidity
    00:00 +17°C° 0.1 mm 3 mps 650 mmHg 93%
    01:00 +17°C° 0.1 mm 3 mps 649 mmHg 94%
    02:00 +16°C° 0.1 mm 3 mps 649 mmHg 94%
    03:00 +16°C° 0.1 mm 3 mps 649 mmHg 94%
    04:00 +16°C° 0.1 mm 2 mps 649 mmHg 94%
    05:00 +16°C° 0.1 mm 2 mps 649 mmHg 95%
    06:00 +16°C° 0.1 mm 2 mps 649 mmHg 93%
    07:00 +17°C° 0.1 mm 3 mps 650 mmHg 92%
    08:00 +17°C° 0.1 mm 3 mps 650 mmHg 90%
    09:00 +19°C° 0 mm 3 mps 651 mmHg 84%
    10:00 +20°C° 0 mm 3 mps 651 mmHg 77%
    11:00 +21°C° 0 mm 3 mps 652 mmHg 71%
    12:00 +24°C° 0 mm 3 mps 652 mmHg 66%
    13:00 +25°C° 0 mm 3 mps 651 mmHg 62%
    14:00 +26°C° 0 mm 3 mps 651 mmHg 57%
    15:00 +25°C° 0.1 mm 3 mps 650 mmHg 61%
    16:00 +24°C° 0.1 mm 3 mps 649 mmHg 65%
    17:00 +22°C° 0.1 mm 3 mps 649 mmHg 69%
    18:00 +21°C° 0 mm 3 mps 649 mmHg 77%
    19:00 +19°C° 0 mm 3 mps 649 mmHg 85%
    20:00 +18°C° 0 mm 3 mps 649 mmHg 93%
    21:00 +18°C° 0.1 mm 3 mps 649 mmHg 93%
    22:00 +17°C° 0.1 mm 3 mps 650 mmHg 94%
    23:00 +17°C° 0.1 mm 3 mps 650 mmHg 95%

    21 January, Monday

    Time Temperature Precipitation Wind Pressure Humidity
    00:00 +17°C° 0.1 mm 3 mps 650 mmHg 95%
    01:00 +17°C° 0.1 mm 3 mps 650 mmHg 95%
    02:00 +17°C° 0.1 mm 2 mps 649 mmHg 95%
    03:00 +17°C° 0.1 mm 2 mps 649 mmHg 95%
    04:00 +17°C° 0.1 mm 2 mps 649 mmHg 96%
    05:00 +17°C° 0.1 mm 2 mps 649 mmHg 96%
    06:00 +17°C° 0.1 mm 2 mps 650 mmHg 94%
    07:00 +17°C° 0.1 mm 2 mps 650 mmHg 93%
    08:00 +17°C° 0.1 mm 2 mps 651 mmHg 92%
    09:00 +19°C° 0 mm 2 mps 651 mmHg 86%
    10:00 +20°C° 0 mm 2 mps 652 mmHg 80%
    11:00 +21°C° 0 mm 2 mps 652 mmHg 74%
    12:00 +22°C° 0.1 mm 3 mps 652 mmHg 70%
    13:00 +24°C° 0.1 mm 3 mps 651 mmHg 66%
    14:00 +25°C° 0.1 mm 3 mps 651 mmHg 63%
    15:00 +24°C° 0.1 mm 3 mps 650 mmHg 66%
    16:00 +22°C° 0.1 mm 3 mps 650 mmHg 69%
    17:00 +21°C° 0.1 mm 3 mps 649 mmHg 73%
    18:00 +20°C° 0 mm 3 mps 649 mmHg 80%
    19:00 +19°C° 0 mm 3 mps 650 mmHg 86%
    20:00 +18°C° 0 mm 3 mps 650 mmHg 93%
    21:00 +17°C° 0.1 mm 3 mps 650 mmHg 94%
    22:00 +17°C° 0.1 mm 3 mps 650 mmHg 95%
    23:00 +17°C° 0.1 mm 3 mps 650 mmHg 95%

    22 January, Tuesday

    Time Temperature Precipitation Wind Pressure Humidity
    00:00 +17°C° 0.1 mm 3 mps 650 mmHg 95%
    01:00 +17°C° 0.1 mm 3 mps 650 mmHg 95%
    02:00 +17°C° 0.1 mm 3 mps 650 mmHg 95%
    03:00 +16°C° 0.1 mm 3 mps 650 mmHg 95%
    04:00 +16°C° 0.1 mm 3 mps 650 mmHg 95%
    05:00 +16°C° 0.1 mm 3 mps 650 mmHg 95%
    06:00 +16°C° 0.1 mm 3 mps 650 mmHg 94%
    07:00 +16°C° 0.1 mm 3 mps 651 mmHg 93%
    08:00 +17°C° 0.1 mm 3 mps 651 mmHg 92%
    09:00 +18°C° 0 mm 3 mps 652 mmHg 88%
    10:00 +18°C° 0 mm 3 mps 652 mmHg 84%
    11:00 +19°C° 0 mm 3 mps 652 mmHg 79%
    12:00 +20°C° 0 mm 3 mps 652 mmHg 75%
    13:00 +21°C° 0 mm 3 mps 651 mmHg 71%
    14:00 +22°C° 0 mm 4 mps 651 mmHg 66%
    15:00 +22°C° 0 mm 4 mps 651 mmHg 67%
    16:00 +21°C° 0 mm 4 mps 650 mmHg 67%
    17:00 +21°C° 0 mm 4 mps 650 mmHg 68%
    18:00 +20°C° 0 mm 3 mps 650 mmHg 76%
    19:00 +18°C° 0 mm 3 mps 650 mmHg 84%
    20:00 +17°C° 0 mm 3 mps 650 mmHg 92%
    21:00 +17°C° 0.2 mm 3 mps 650 mmHg 93%
    22:00 +17°C° 0.2 mm 3 mps 650 mmHg 94%
    23:00 +17°C° 0.2 mm 3 mps 651 mmHg 95%
    Show more